This is the latest recevied weather packets stored in our database for station/object DB5ZQ. If no packets are shown the sender has not sent any weather packets the latest 10 day(s).
| Time | Temp. | Humidity | Pressure | Rain* | Wind** | Luminosity | Snow |
|---|---|---|---|---|---|---|---|
| 1787488270 | 26.11° C | 32% | 1019.7 hPa | 0 mm | - | - | - |
| 1787487970 | 26.11° C | 32% | 1019.7 hPa | 0 mm | - | - | - |
| 1787487669 | 26.11° C | 34% | 1019.6 hPa | 0 mm | - | - | - |
| 1787487369 | 25.56° C | 35% | 1019.6 hPa | 0 mm | - | - | - |
| 1787487069 | 25° C | 35% | 1019.6 hPa | 0 mm | - | - | - |
| 1787486769 | 25° C | 36% | 1019.6 hPa | 0 mm | - | - | - |
| 1787486468 | 24.44° C | 37% | 1019.6 hPa | 0 mm | - | - | - |
| 1787486168 | 24.44° C | 38% | 1019.6 hPa | 0 mm | - | - | - |
| 1787485868 | 24.44° C | 38% | 1019.7 hPa | 0 mm | - | - | - |
| 1787485567 | 24.44° C | 37% | 1019.7 hPa | 0 mm | - | - | - |
| 1787485267 | 24.44° C | 37% | 1019.8 hPa | 0 mm | - | - | - |
| 1787484967 | 23.89° C | 39% | 1019.8 hPa | 0 mm | - | - | - |
| 1787484666 | 23.89° C | 38% | 1019.8 hPa | 0 mm | - | - | - |
| 1787484366 | 23.89° C | 41% | 1019.8 hPa | 0 mm | - | - | - |
| 1787484066 | 23.33° C | 42% | 1019.8 hPa | 0 mm | - | - | - |
| 1787483766 | 23.33° C | 41% | 1019.9 hPa | 0 mm | - | - | - |
| 1787483465 | 23.33° C | 41% | 1019.9 hPa | 0 mm | - | - | - |
| 1787483165 | 22.78° C | 41% | 1019.8 hPa | 0 mm | - | - | - |
| 1787482865 | 22.78° C | 43% | 1019.9 hPa | 0 mm | - | - | - |
| 1787482565 | 22.22° C | 43% | 1020 hPa | 0 mm | - | - | - |
| 1787482264 | 22.22° C | 47% | 1020 hPa | 0 mm | - | - | - |
| 1787481964 | 21.67° C | 48% | 1020.1 hPa | 0 mm | - | - | - |
| 1787481664 | 21.67° C | 47% | 1020.1 hPa | 0 mm | - | - | - |
| 1787481363 | 22.22° C | 45% | 1020.2 hPa | 0 mm | - | - | - |
| 1787481063 | 22.78° C | 46% | 1020.2 hPa | 0 mm | - | - | - |
* Rain latest hour (hover to see other rain measurements)
** Current wind speed in m/s (hover to see current wind gust speed)